EW5123 Weather Reports


time (UTC)temp
F
wind
direction
speed
knots
gust
knots
rain 1hr
in
rain 24hr
in
rain mn
in
humidity
%
barometer
mb
20260509042824 50 193 0.9 2.6 0.00 0.00 0.00 66 980.9
20260509042324 49 124 0.0 1.7 0.00 0.00 0.00 68 980.8
20260509041823 49 178 0.0 0.9 0.00 0.00 0.00 69 980.9
20260509041322 49 198 0.0 0.0 0.00 0.00 0.00 70 981.1
20260509040822 49 197 0.0 0.0 0.00 0.00 0.00 69 981.2
20260509040321 49 197 0.0 0.0 0.00 0.00 0.00 67 981.1
20260509035822 49 197 0.0 0.0 0.00 0.00 0.00 66 981.1
20260509035327 49 197 0.0 0.0 0.00 0.00 0.00 66 980.8
20260509035322 49 197 0.0 0.0 0.00 0.00 0.00 67 980.9
20260509034322 49 197 0.0 0.0 0.00 0.00 0.00 66 980.8
20260509033822 49 197 0.0 0.0 0.00 0.00 0.00 67 980.7
20260509033322 50 197 0.0 0.0 0.00 0.00 0.00 66 980.7
20260509032821 50 197 0.0 0.0 0.00 0.00 0.00 65 980.7
20260509032320 51 197 0.0 0.0 0.00 0.00 0.00 64 980.7
20260509031820 51 197 0.0 0.0 0.00 0.00 0.00 64 980.7
20260509031320 51 197 0.0 0.0 0.00 0.00 0.00 64 980.6
20260509030820 52 197 0.0 0.0 0.00 0.00 0.00 64 980.5
20260509030320 52 151 0.0 2.6 0.00 0.00 0.00 64 980.4
20260509025819 52 179 0.9 2.6 0.00 0.00 0.00 62 980.4
20260509025320 52 159 0.0 2.6 0.00 0.00 0.00 63 980.2
20260509024821 52 163 0.0 1.7 0.00 0.00 0.00 63 980.2
20260509024319 53 160 0.0 1.7 0.00 0.00 0.00 62 980.1
20260509023820 53 197 0.0 1.7 0.00 0.00 0.00 61 980.1
20260509023317 53 141 0.0 0.9 0.00 0.00 0.00 60 980.1
20260509022817 54 143 0.0 0.9 0.00 0.00 0.00 60 980.1
20260509022317 55 170 0.0 0.0 0.00 0.00 0.00 58 980.1
20260509021817 55 151 0.0 0.0 0.00 0.00 0.00 56 980.1
20260509021316 56 151 0.0 0.0 0.00 0.00 0.00 55 980.0
20260509020816 56 118 0.0 0.9 0.00 0.00 0.00 53 979.9
20260509020316 57 125 0.0 0.9 0.00 0.00 0.00 53 979.9
20260509015816 58 129 0.0 0.9 0.00 0.00 0.00 51 979.9
20260509015314 58 128 0.0 0.9 0.00 0.00 0.00 50 979.9
20260509014817 58 122 0.0 0.9 0.00 0.00 0.00 49 979.8
20260509014813 59 155 0.0 0.0 0.00 0.00 0.00 49 979.6
20260509013812 59 155 0.0 0.0 0.00 0.00 0.00 48 979.5
20260509013312 60 142 0.0 0.0 0.00 0.00 0.00 47 979.4
20260509012812 60 141 0.0 0.9 0.00 0.00 0.00 46 979.4
20260509012312 61 142 0.0 1.7 0.00 0.00 0.00 44 979.3
20260509011810 61 34 0.0 1.7 0.00 0.00 0.00 44 979.3
20260509011314 62 269 0.0 0.9 0.00 0.00 0.00 43 979.4
20260509011310 62 234 0.0 0.9 0.00 0.00 0.00 44 979.4
20260509010915 62 137 0.0 0.9 0.00 0.00 0.00 44 979.3
20260509005808 63 296 0.0 0.9 0.00 0.00 0.00 42 979.5
20260509005308 63 221 0.0 1.7 0.00 0.00 0.00 42 979.6
20260509004808 64 314 0.0 2.6 0.00 0.00 0.00 41 979.6
20260509004314 65 249 0.0 2.6 0.00 0.00 0.00 41 979.5
20260509003813 64 230 0.0 0.9 0.00 0.00 0.00 41 979.5
20260509003809 64 148 0.0 0.9 0.00 0.00 0.00 41 979.5
20260509002807 64 188 0.0 0.9 0.00 0.00 0.00 42 979.4
20260509002308 63 280 0.0 0.9 0.00 0.00 0.00 41 979.4
20260509001808 64 340 0.0 0.9 0.00 0.00 0.00 41 979.3
20260509001308 65 192 0.0 0.9 0.00 0.00 0.00 40 979.4
20260509000808 65 217 0.0 3.5 0.00 0.00 0.00 39 979.3
20260509000307 66 281 0.9 4.3 0.00 0.00 0.00 38 979.4
20260508235808 66 0 0.9 4.3 0.00 0.00 0.00 37 979.4
20260508235308 67 327 0.0 2.6 0.00 0.00 0.00 36 979.3
20260508234807 67 319 0.0 2.6 0.00 0.00 0.00 37 979.3
20260508234308 68 241 0.9 4.3 0.00 0.00 0.00 37 979.3
20260508233807 67 104 0.9 4.3 0.00 0.00 0.00 36 979.2
20260508233308 68 359 0.9 4.3 0.00 0.00 0.00 37 979.2
20260508232807 67 320 0.9 5.2 0.00 0.00 0.00 37 979.2
20260508232307 68 347 0.0 5.2 0.00 0.00 0.00 36 979.3
20260508231808 68 32 0.9 5.2 0.00 0.00 0.00 37 979.2
20260508231312 67 327 1.7 7.0 0.00 0.00 0.00 36 979.3
20260508231307 67 313 1.7 7.0 0.00 0.00 0.00 39 979.3
20260508230307 68 206 0.0 4.3 0.00 0.00 0.00 37 979.3
20260508225807 69 176 0.0 2.6 0.00 0.00 0.00 36 979.4
20260508225307 68 140 0.0 1.7 0.00 0.00 0.00 37 979.3
20260508224807 68 228 0.0 2.6 0.00 0.00 0.00 38 979.3
20260508224311 68 143 1.7 8.7 0.00 0.00 0.00 39 979.3
20260508224306 67 335 1.7 8.7 0.00 0.00 0.00 38 979.3
20260508223305 67 330 1.7 5.2 0.00 0.00 0.00 38 979.3
20260508222806 68 354 0.9 5.2 0.00 0.00 0.00 38 979.3
20260508222306 68 332 0.9 5.2 0.00 0.00 0.00 37 979.3
20260508221805 69 358 0.0 3.5 0.00 0.00 0.00 36 979.4
20260508221305 68 120 0.9 4.3 0.00 0.00 0.00 36 979.4
20260508220805 67 158 0.9 4.3 0.00 0.00 0.00 37 979.4
20260508220305 68 306 0.0 2.6 0.00 0.00 0.00 37 979.4
20260508215803 69 111 0.0 1.7 0.00 0.00 0.00 38 979.5
20260508215306 68 157 0.0 4.3 0.00 0.00 0.00 37 979.6
20260508214801 68 229 0.0 4.3 0.00 0.00 0.00 37 979.6
20260508214301 67 226 0.9 6.1 0.00 0.00 0.00 36 979.6
20260508213800 66 252 1.7 6.1 0.00 0.00 0.00 39 979.6
20260508213301 66 0 1.7 6.1 0.00 0.00 0.00 39 979.6
20260508212801 66 27 1.7 6.1 0.00 0.00 0.00 39 979.8
20260508212301 67 16 0.9 6.1 0.00 0.00 0.00 36 979.8
20260508211801 67 326 0.9 3.5 0.00 0.00 0.00 39 979.8
20260508211301 67 332 0.9 4.3 0.00 0.00 0.00 40 979.9
20260508210801 66 297 0.9 7.0 0.00 0.00 0.00 40 979.9
20260508210301 65 5 1.7 7.0 0.00 0.00 0.00 40 980.0
20260508205803 65 344 2.6 7.8 0.00 0.00 0.00 39 980.0
20260508205759 65 4 2.6 7.0 0.00 0.00 0.00 39 980.0
20260508204757 65 340 2.6 7.8 0.00 0.00 0.00 38 980.0
20260508204257 65 7 2.6 7.8 0.00 0.00 0.00 39 979.9
20260508203757 65 349 2.6 8.7 0.00 0.00 0.00 38 980.0
20260508203257 66 356 1.7 8.7 0.00 0.00 0.00 37 980.2
20260508202757 67 16 0.9 6.1 0.00 0.00 0.00 37 980.1
20260508202258 66 151 0.9 6.1 0.00 0.00 0.00 39 980.2
20260508201757 65 352 1.7 7.0 0.00 0.00 0.00 40 980.2
20260508201257 65 335 1.7 7.8 0.00 0.00 0.00 39 980.1
20260508200757 65 307 1.7 7.8 0.00 0.00 0.00 41 980.2
20260508200257 65 342 1.7 7.0 0.00 0.00 0.00 39 980.2
20260508195754 65 230 3.5 9.6 0.00 0.00 0.00 41 980.4
20260508195255 64 13 3.5 9.6 0.00 0.00 0.00 38 980.4
20260508194755 64 340 2.6 9.6 0.00 0.00 0.00 40 980.4
20260508194255 65 359 2.6 9.6 0.00 0.00 0.00 36 980.4
20260508193755 65 128 2.6 8.7 0.00 0.00 0.00 37 980.4
20260508193255 65 207 2.6 7.0 0.00 0.00 0.00 39 980.4
20260508192254 63 330 3.5 8.7 0.00 0.00 0.00 40 980.5
20260508191757 64 334 3.5 10.4 0.00 0.00 0.00 39 980.6
20260508191753 64 329 3.5 9.6 0.00 0.00 0.00 37 980.5
20260508191359 64 4 2.6 10.4 0.00 0.00 0.00 37 980.5
20260508190253 64 342 1.7 7.0 0.00 0.00 0.00 40 980.6
20260508185753 64 321 2.6 7.8 0.00 0.00 0.00 38 980.6
20260508185253 64 322 2.6 7.8 0.00 0.00 0.00 39 980.6
20260508184753 63 349 2.6 7.0 0.00 0.00 0.00 38 980.6
20260508184253 63 316 1.7 7.0 0.00 0.00 0.00 39 980.8
20260508183750 62 333 0.9 6.1 0.00 0.00 0.00 40 980.8
20260508183250 62 331 2.6 8.7 0.00 0.00 0.00 42 980.9
20260508182748 62 2 4.3 8.7 0.00 0.00 0.00 43 981.1
20260508182249 62 352 2.6 7.8 0.00 0.00 0.00 43 980.9
20260508181749 62 304 2.6 7.8 0.00 0.00 0.00 39 981.1
20260508181253 64 333 0.0 5.2 0.00 0.00 0.00 40 981.2
20260508181249 62 312 2.6 7.8 0.00 0.00 0.00 39 981.2
20260508180248 63 60 0.9 3.5 0.00 0.00 0.00 45 981.3
20260508175749 62 172 0.9 3.5 0.00 0.00 0.00 43 981.3
20260508175249 62 157 0.0 3.5 0.00 0.00 0.00 43 981.4
20260508174749 62 139 0.0 2.6 0.00 0.00 0.00 44 981.4
20260508174248 62 211 0.0 2.6 0.00 0.00 0.00 44 981.4
20260508173748 62 326 0.0 2.6 0.00 0.00 0.00 42 981.5
20260508173248 61 153 0.0 4.3 0.00 0.00 0.00 46 981.5
20260508172750 60 149 0.9 4.3 0.00 0.00 0.00 47 981.7
20260508172253 60 346 0.0 2.6 0.00 0.00 0.00 48 981.5
20260508172249 59 254 0.9 3.5 0.00 0.00 0.00 46 981.5
20260508171249 60 214 0.0 2.6 0.00 0.00 0.00 47 981.7
20260508170748 58 287 0.0 1.7 0.00 0.00 0.00 52 981.7
20260508170253 56 327 0.9 4.3 0.00 0.00 0.00 53 981.8
20260508170249 57 28 0.9 3.5 0.00 0.00 0.00 52 981.8
20260508165249 56 268 0.9 4.3 0.00 0.00 0.00 51 981.8
20260508164749 57 29 0.0 3.5 0.00 0.00 0.00 51 981.9
20260508164249 57 198 0.0 2.6 0.00 0.00 0.00 54 981.9
20260508163749 56 304 0.0 2.6 0.00 0.00 0.00 50 982.0
20260508163249 57 175 0.0 1.7 0.00 0.00 0.00 49 982.0
20260508162749 56 120 0.9 5.2 0.00 0.00 0.00 54 982.0
20260508162249 55 353 0.9 5.2 0.00 0.01 0.00 55 982.1
20260508161748 54 340 0.9 3.5 0.00 0.01 0.00 58 982.0
20260508161249 54 322 0.9 3.5 0.00 0.01 0.00 56 982.0
20260508160749 54 203 0.9 3.5 0.00 0.02 0.00 59 982.1
20260508160253 53 189 0.9 3.5 0.00 0.02 0.00 60 982.1
20260508160248 53 285 0.9 3.5 0.00 0.02 0.00 61 982.1
20260508155248 53 304 0.9 3.5 0.00 0.03 0.00 60 982.1
20260508154749 53 219 0.9 4.3 0.00 0.03 0.00 63 982.2
20260508154253 51 185 0.9 2.6 0.00 0.03 0.00 67 982.2
20260508154248 52 181 0.9 4.3 0.00 0.03 0.00 65 982.2
20260508153248 51 294 0.0 2.6 0.00 0.03 0.00 67 982.5
20260508152749 51 182 0.9 3.5 0.00 0.03 0.00 68 982.5
20260508152248 50 191 1.7 3.5 0.00 0.03 0.00 71 982.5
20260508151748 50 265 0.9 3.5 0.00 0.03 0.00 72 982.5
20260508151248 49 200 0.9 3.5 0.00 0.03 0.00 72 982.5
20260508150748 49 244 0.9 3.5 0.00 0.03 0.00 72 982.6
20260508150251 49 188 0.9 3.5 0.00 0.03 0.00 76 982.6
20260508150247 48 158 0.0 2.6 0.00 0.03 0.00 76 982.7
20260508145246 47 200 0.0 1.7 0.00 0.03 0.00 78 982.7
20260508144751 47 262 0.0 2.6 0.00 0.03 0.00 77 983.0
20260508144747 47 5 0.0 2.6 0.00 0.03 0.00 77 982.8
20260508144352 47 333 0.0 2.6 0.00 0.03 0.00 78 983.0
20260508143245 46 323 0.0 2.6 0.00 0.03 0.00 81 982.8
20260508142745 46 283 0.0 0.9 0.00 0.03 0.00 83 982.8
20260508142249 44 317 0.0 1.7 0.00 0.03 0.00 83 983.0
20260508142245 45 192 0.0 1.7 0.00 0.03 0.00 82 983.0
20260508141245 44 217 0.0 0.9 0.00 0.03 0.00 84 983.0
20260508140744 44 229 0.0 0.9 0.00 0.03 0.00 84 983.0
20260508140244 43 323 0.0 0.9 0.00 0.03 0.00 85 983.0
20260508135745 43 342 0.0 0.9 0.00 0.03 0.00 86 983.0
20260508135246 42 205 0.0 1.7 0.00 0.03 0.00 86 983.0
20260508135242 43 291 0.0 0.9 0.00 0.03 0.00 86 983.0
20260508134244 42 0 0.0 1.7 0.00 0.03 0.00 86 982.8
20260508134240 42 347 0.0 1.7 0.00 0.03 0.00 87 983.0
20260508133240 42 308 0.0 1.7 0.00 0.03 0.00 87 982.8
20260508132740 42 1 0.0 0.9 0.00 0.03 0.00 87 983.0
20260508132241 41 340 0.0 2.6 0.00 0.03 0.00 88 982.8
20260508131740 41 359 0.0 3.5 0.00 0.03 0.00 88 982.8
20260508131347 39 319 0.0 1.7 0.00 0.03 0.00 88 982.5
20260508131244 40 335 0.0 2.6 0.00 0.03 0.00 88 982.6
20260508131240 40 296 0.0 3.5 0.00 0.03 0.00 88 982.7
20260508125744 38 148 0.0 0.0 0.00 0.03 0.00 89 982.2
20260508125740 38 13 0.0 1.7 0.00 0.03 0.00 89 982.4
20260508124738 37 148 0.0 0.0 0.00 0.03 0.00 88 981.9
20260508124238 37 148 0.0 0.0 0.00 0.03 0.00 89 981.5
20260508123738 36 206 0.0 0.0 0.00 0.03 0.00 87 981.7
20260508123238 37 206 0.0 0.0 0.00 0.03 0.00 87 981.5
20260508122738 37 206 0.0 0.0 0.00 0.03 0.00 86 981.5
20260508122240 37 206 0.0 0.0 0.00 0.03 0.00 86 981.2
20260508121738 37 207 0.0 0.0 0.00 0.03 0.00 86 981.2
20260508121238 38 207 0.0 0.0 0.00 0.03 0.00 87 981.1
20260508120742 37 207 0.0 0.0 0.00 0.03 0.00 86 980.9
20260508120738 37 207 0.0 0.0 0.00 0.03 0.00 87 980.9
20260508120237 37 206 0.0 0.0 0.00 0.03 0.00 85 980.7
20260508115236 38 199 0.0 0.9 0.00 0.03 0.00 85 980.7
20260508114735 38 330 0.0 0.9 0.00 0.03 0.00 85 980.6
20260508114241 39 351 0.0 2.6 0.00 0.03 0.00 83 980.6
20260508114236 38 205 0.9 7.0 0.00 0.03 0.00 84 980.6
20260508113736 38 348 0.9 7.0 0.00 0.03 0.00 82 980.5
20260508112736 39 168 0.0 1.7 0.00 0.03 0.00 84 980.1
20260508112236 38 219 0.0 0.9 0.00 0.03 0.00 85 980.1
20260508111736 38 213 0.0 0.0 0.00 0.03 0.00 83 980.1
20260508111235 38 274 0.0 0.9 0.00 0.03 0.00 83 980.1
20260508110734 39 274 0.0 1.7 0.00 0.03 0.00 83 980.2
20260508110234 39 213 0.0 1.7 0.00 0.03 0.00 86 980.2
20260508105735 38 259 0.0 0.9 0.00 0.03 0.00 88 980.2
20260508105234 37 197 0.0 0.0 0.00 0.03 0.00 85 980.4
20260508104738 37 188 0.0 0.0 0.00 0.03 0.00 85 980.1
20260508104734 37 197 0.0 0.0 0.00 0.03 0.00 84 980.2
20260508103734 37 188 0.0 0.0 0.00 0.03 0.00 84 980.1
20260508103233 38 188 0.0 0.0 0.00 0.03 0.00 84 980.1
20260508102734 38 219 0.0 0.0 0.00 0.03 0.00 83 980.2
20260508102234 38 219 0.0 0.0 0.00 0.03 0.00 83 980.0
20260508101732 39 219 0.0 0.0 0.00 0.03 0.00 83 980.1
20260508101231 39 219 0.0 0.0 0.00 0.03 0.00 83 980.1
20260508100731 39 219 0.0 0.0 0.00 0.03 0.00 84 980.0
20260508100236 38 208 0.0 0.0 0.00 0.03 0.00 84 980.0
20260508100232 38 219 0.0 0.0 0.00 0.03 0.00 85 980.0
20260508095232 38 3 0.0 0.0 0.00 0.03 0.00 84 979.9
20260508094732 38 3 0.0 0.0 0.00 0.03 0.00 83 979.8
20260508094229 38 3 0.0 0.0 0.00 0.03 0.00 84 979.8
20260508093731 38 3 0.0 0.0 0.00 0.03 0.00 83 979.8
20260508093230 39 3 0.0 0.0 0.00 0.03 0.00 83 979.8
20260508092729 39 3 0.0 0.0 0.00 0.03 0.00 82 979.9
20260508092227 39 3 0.0 0.0 0.00 0.03 0.00 82 979.9
20260508091727 39 3 0.0 0.0 0.00 0.03 0.00 82 979.9
20260508091227 40 3 0.0 0.0 0.00 0.03 0.00 81 980.0
20260508090727 40 3 0.0 0.0 0.00 0.03 0.00 80 980.0
20260508090227 40 3 0.0 0.0 0.00 0.03 0.00 79 980.0
20260508085728 41 3 0.0 0.9 0.00 0.03 0.00 79 980.0
20260508085228 41 3 0.0 0.9 0.00 0.03 0.00 79 980.1
20260508084726 41 156 0.0 0.0 0.00 0.03 0.00 79 979.9
20260508084225 41 157 0.0 0.0 0.00 0.03 0.00 79 979.9
20260508083726 41 157 0.0 0.0 0.00 0.03 0.00 78 980.0
20260508083225 42 156 0.0 0.0 0.00 0.03 0.00 78 980.0
20260508082724 42 157 0.0 0.0 0.00 0.03 0.00 77 980.1
20260508082223 42 157 0.0 0.0 0.00 0.03 0.00 78 980.1
20260508081723 42 157 0.0 0.0 0.00 0.03 0.00 78 980.2
20260508081223 42 156 0.0 0.0 0.00 0.03 0.00 77 980.4
20260508080729 44 156 0.0 0.9 0.00 0.03 0.00 74 980.5
20260508080725 42 157 0.0 0.9 0.00 0.03 0.00 76 980.5
20260508075723 44 135 0.0 0.9 0.00 0.03 0.00 74 980.6
20260508075224 45 199 0.0 0.9 0.00 0.03 0.00 73 980.7
20260508074724 44 219 0.0 0.9 0.00 0.03 0.00 73 980.8
20260508074226 43 170 0.0 0.9 0.00 0.03 0.00 75 980.9
20260508074222 44 178 0.0 0.0 0.00 0.03 0.00 75 981.1
20260508073721 43 170 0.0 0.0 0.00 0.03 0.00 76 980.9
20260508072721 43 170 0.0 1.7 0.00 0.03 0.00 75 980.8
20260508072222 43 220 0.0 1.7 0.00 0.03 0.00 74 980.8
20260508071722 43 129 0.0 0.9 0.00 0.03 0.00 74 980.7
20260508071221 43 165 0.0 0.0 0.00 0.03 0.00 73 981.1
20260508070721 44 165 0.0 0.9 0.00 0.03 0.00 72 980.9
20260508070221 44 165 0.0 0.9 0.00 0.03 0.00 72 980.8
20260508065721 45 346 0.0 0.9 0.00 0.03 0.00 70 980.9
20260508065221 45 346 0.0 0.9 0.00 0.03 0.00 70 981.2
20260508064721 45 332 0.0 0.9 0.00 0.03 0.00 70 980.9
20260508064226 45 212 0.0 0.0 0.00 0.03 0.00 69 980.7
20260508064222 45 208 0.0 0.0 0.00 0.03 0.00 70 980.7
20260508063221 46 158 0.0 0.0 0.00 0.03 0.00 68 980.7
20260508062721 46 162 0.0 0.0 0.00 0.03 0.00 66 980.7
20260508062221 47 162 0.0 0.0 0.00 0.03 0.00 65 980.7
20260508061719 47 162 0.0 0.0 0.00 0.03 0.00 64 980.7
20260508061218 47 162 0.0 0.0 0.00 0.03 0.00 64 980.7
20260508060717 47 302 0.0 0.9 0.00 0.03 0.00 64 980.8
20260508060217 47 266 0.0 0.9 0.00 0.03 0.00 64 980.7
20260508055717 47 150 0.0 0.9 0.00 0.03 0.03 63 980.5
20260508055223 47 150 0.0 2.6 0.00 0.03 0.03 64 980.4
20260508054714 47 197 0.0 2.6 0.00 0.03 0.03 63 980.2
20260508054214 48 159 0.0 0.9 0.00 0.03 0.03 63 980.4
20260508053714 48 159 0.0 0.9 0.00 0.03 0.03 62 980.2
20260508053214 48 345 0.0 0.9 0.00 0.03 0.03 61 980.5
20260508052712 48 345 0.0 0.9 0.00 0.03 0.03 61 980.6
20260508052211 48 274 0.0 0.0 0.00 0.03 0.03 62 980.5
20260508051710 49 172 0.0 0.0 0.00 0.03 0.03 60 980.4
20260508051210 49 172 0.0 0.0 0.00 0.03 0.03 58 980.2
20260508050714 49 172 0.0 0.0 0.00 0.03 0.03 58 980.1
20260508050710 49 172 0.0 0.0 0.00 0.03 0.03 58 980.0
20260508045711 50 170 0.0 0.0 0.00 0.03 0.03 58 980.1
20260508045210 49 173 0.0 0.0 0.00 0.03 0.03 57 980.1
20260508044710 50 168 0.0 0.0 0.00 0.03 0.03 58 980.0
20260508044214 51 168 0.0 0.0 0.00 0.03 0.03 55 980.1
20260508044210 50 169 0.0 0.0 0.00 0.03 0.03 58 980.1
20260508043210 51 168 0.0 0.9 0.00 0.03 0.03 53 980.0